Weather History for KHND - June, 2014

Change the Weather History Date:

Tuesday, June 17, 2014

  Actual Average (KLAS) Record (KLAS)
Temperature  
Mean Temperature 80 °F 87 °F  
Max Temperature 91 °F 99 °F 113 °F (1940)
Min Temperature 70 °F 75 °F 50 °F (1944)
Degree Days  
Heating Degree Days 0 0  
Month to date heating degree days 0  
Since 1 June heating degree days 0  
Since 1 July heating degree days 1950  
Cooling Degree Days 16 22  
Month to date cooling degree days 336  
Year to date cooling degree days 886  
Since 1 June cooling degree days 336  
Growing Degree Days 30 (Base 50)    
Moisture  
Dew Point 32 °F    
Average Humidity 19    
Maximum Humidity 29    
Minimum Humidity 10    
Precipitation  
Precipitation 0.00 in 0.00 in 0.22 in (1969)
Month to date precipitation 0.04  
Year to date precipitation 2.05  
Snow  
Snow 0.00 in 0.00 in 0.00 in ()
Month to date snowfall 0.0  
Since 1 June snowfall 0.0  
Since 1 July snowfall 0.3  
Snow Depth -    
Sea Level Pressure  
Sea Level Pressure 29.66 in    
Wind  
Wind Speed 24 mph (SW)    
Max Wind Speed 36 mph    
Max Gust Speed 40 mph    
Visibility 10 miles    
Events      
T = Trace of Precipitation, MM = Missing Value Source: NWS Daily Summary

Daily Weather History Graph

Daily Weather History Graph

Search for Another Location

Airport or City:

Trip Planner

Search our weather history database for the weather conditions in past years. The results will help you decide how hot, cold, wet, or windy it might be!

Date:

Astronomy

Jun. 17, 2014 Rise Set
Actual Time 5:23 AM PDT 7:59 PM PDT
Civil Twilight 4:53 AM PDT 8:29 PM PDT
Nautical Twilight 4:15 AM PDT 9:07 PM PDT
Astronomical Twilight 3:33 AM PDT 9:49 PM PDT
Moon 11:41 PM PDT (6/17) 10:34 AM PDT (6/17)
Length of Visible Light 15h 36m
Length of Day
14h 36m
Waning Gibbous, 72% of the Moon is Illuminated
Jun 17
Waning Gibbous
Jun 19
Last Quarter
Jun 27
New
Jul 5
First Quarter
Jul 12
Full

Hourly Weather History & Observations

Time (PDT) Temp. Dew Point Humidity Pressure Visibility Wind Dir Wind Speed Gust Speed Precip Events Conditions
12:56 AM 74.8 °F 34.0 °F 23% 29.62 in 10.0 mi SSW 23.0 mph 28.8 mph N/A   Clear
1:56 AM 72.9 °F 34.0 °F 24% 29.59 in 10.0 mi SSW 35.7 mph 40.3 mph N/A   Clear
2:56 AM 72.0 °F 34.0 °F 25% 29.61 in 10.0 mi SW 24.2 mph 31.1 mph N/A   Clear
3:56 AM 70.9 °F 34.9 °F 27% 29.63 in 10.0 mi SSW 18.4 mph 27.6 mph N/A   Clear
4:56 AM 70.0 °F 36.0 °F 29% 29.65 in 10.0 mi SSW 21.9 mph 26.5 mph N/A   Clear
5:56 AM 70.0 °F 36.0 °F 29% 29.67 in 10.0 mi SSW 19.6 mph - N/A   Clear
6:56 AM 70.9 °F 36.9 °F 29% 29.69 in 10.0 mi South 18.4 mph - N/A   Clear
7:56 AM 73.9 °F 36.9 °F 26% 29.69 in 10.0 mi SSW 23.0 mph 28.8 mph N/A   Clear
8:56 AM 77.9 °F 34.9 °F 21% 29.68 in 10.0 mi SSW 27.6 mph 34.5 mph N/A   Clear
9:56 AM 79.9 °F 34.9 °F 20% 29.68 in 10.0 mi SSW 26.5 mph 35.7 mph N/A   Clear
10:56 AM 81.9 °F 34.9 °F 18% 29.68 in 10.0 mi SW 29.9 mph 34.5 mph N/A   Clear
11:56 AM 84.9 °F 32.9 °F 15% 29.70 in 10.0 mi SW 23.0 mph 31.1 mph N/A   Clear
12:56 PM 86.9 °F 34.0 °F 15% 29.68 in 10.0 mi SSW 20.7 mph 33.4 mph N/A   Clear
1:56 PM 88.9 °F 32.0 °F 13% 29.66 in 10.0 mi SSW 27.6 mph 33.4 mph N/A   Clear
2:56 PM 90.9 °F 30.0 °F 11% 29.65 in 10.0 mi SW 21.9 mph 31.1 mph N/A   Clear
3:56 PM 91.9 °F 30.0 °F 11% 29.63 in 10.0 mi SSW 26.5 mph 34.5 mph N/A   Clear
4:56 PM 90.9 °F 27.1 °F 10% 29.64 in 10.0 mi West 20.7 mph 31.1 mph N/A   Clear
5:56 PM 90.0 °F 25.2 °F 10% 29.64 in 10.0 mi WSW 23.0 mph 31.1 mph N/A   Clear
6:56 PM 88.0 °F 25.2 °F 10% 29.64 in 10.0 mi WSW 23.0 mph - N/A   Clear
7:56 PM 83.8 °F 25.2 °F 12% 29.64 in 10.0 mi SW 25.3 mph 28.8 mph N/A   Clear
8:56 PM 81.0 °F 26.1 °F 13% 29.66 in 10.0 mi SW 17.3 mph - N/A   Clear
9:56 PM 79.9 °F 32.0 °F 18% 29.67 in 10.0 mi SW 23.0 mph - N/A   Clear
11:56 PM 74.8 °F 32.9 °F 22% 29.69 in 10.0 mi SSW 21.9 mph - N/A   Clear